This demonstration page uses our WeatherBlox Daily Observations layout. Learn more.

Left ArrowRight Arrow

34.02893, -84.19858

Hourly Observations for October 25, 2015

Temp ( °F °C ) Dew Point ( °F °C ) Humidity (%) Winds ( mph kmh ) Pressure ( in mb ) Visibility ( mi km ) Precip ( " mm )
12:53 am 00:53 Clear 62 16.7 59 15 90 90 ENE 6 9 30.12 1020 7 11 0.00 0.00
1:53 am 01:53 Clear with Mist and Fog 61 16.1 59 15 93 93 VRB 6 9 30.11 1020 6 10 0.00 0.00
2:12 am 02:12 Mostly Clear with Mist and Fog 61 16 59 15 94 94 VRB 3 6 30.15 1021 6 10 0.00 0.00
2:30 am 02:30 Mostly Cloudy with Mist and Fog 61 16 59 15 94 94 VRB 3 6 30.15 1021 6 10 0.00 0.00
2:53 am 02:53 Cloudy with Mist and Fog 61 16.1 59 15 93 93 ENE 3 6 30.13 1020 6 10 0.00 0.00
3:53 am 03:53 Cloudy with Mist and Fog 62 16.7 60 15.6 93 93 Calm 30.13 1020 6 10 0.00 0.00
4:53 am 04:53 Cloudy with Mist and Fog 61 16.1 60 15.6 97 97 Calm 30.14 1021 5 8 0.00 0.00
5:45 am 05:45 Cloudy with Mist and Fog 61 16.1 60 15.6 97 97 ENE 5 7 30.18 1022 3 4 0.00 0.00
5:53 am 05:53 Cloudy with Mist and Fog 61 16.1 60 15.6 97 97 VRB 5 7 30.14 1021 3 4 0.00 0.00
6:00 am 06:00 Cloudy with Mist and Fog 61 16 61 16 100 100 Calm 30.18 1022 3 5 0.00 0.00
6:30 am 06:30 Cloudy with Mist and Fog 61 16.1 61 16.1 100 100 Calm 30.18 1022 3 4 0.00 0.00
6:53 am 06:53 Cloudy with Mist and Fog 61 16.1 61 16.1 100 100 Calm 30.16 1021 2 3 0.00 0.00
7:53 am 07:53 Cloudy with Mist and Fog 61 16.1 61 16.1 100 100 Calm 30.15 1021 3 4 0.00 0.00
8:03 am 08:03 Cloudy with Mist and Fog 61 16.1 61 16.1 100 100 Calm 30.18 1022 2 3 0.00 0.00
8:11 am 08:11 Cloudy with Mist and Fog 61 16.1 61 16.1 100 100 Calm 30.18 1022 2 3 0.00 0.00
8:19 am 08:19 Cloudy with Mist and Fog 61 16.1 61 16.1 100 100 Calm 30.21 1023 2 3 0.00 0.00
8:53 am 08:53 Cloudy with Mist and Fog 62 16.7 61 16.1 96 96 VRB 6 9 30.15 1021 3 4 0.00 0.00
9:26 am 09:26 Cloudy with Mist and Fog 63 17 63 17 100 100 Calm 30.18 1022 3 5 0.00 0.00
9:53 am 09:53 Cloudy with Mist and Fog 63 17.2 62 16.7 97 97 Calm 30.18 1022 4 6 0.00 0.00
10:46 am 10:46 Cloudy with Mist and Fog 64 18 63 17 94 94 ESE 5 7 30.18 1022 5 8 0.00 0.00
10:53 am 10:53 Cloudy with Mist and Fog 65 18.3 62 16.7 90 90 VRB 3 6 30.19 1022 6 10 0.00 0.00
11:00 am 11:00 Cloudy with Mist and Fog 64 18 63 17 94 94 ENE 5 7 30.18 1022 6 10 0.00 0.00
11:53 am 11:53 Cloudy with Mist and Fog 66 18.9 62 16.7 87 87 Calm 30.19 1022 6 10 0.00 0.00
12:00 pm 12:00 Cloudy with Mist and Fog 66 19 63 17 88 88 NE 3 6 30.18 1022 6 10 0.00 0.00
12:53 pm 12:53 Cloudy 69 20.6 63 17.2 81 81 Calm 30.17 1022 8 13 0.00 0.00
1:00 pm 13:00 Mostly Cloudy 69 20.6 63 17.2 81 81 Calm 30.15 1021 9 14 0.00 0.00
1:53 pm 13:53 Mostly Cloudy 70 21.1 64 17.8 82 82 VRB 3 6 30.13 1020 10 16 0.00 0.00
2:00 pm 14:00 Sunny 72 22 63 17 73 73 Calm 30.12 1020 10 16 0.00 0.00
2:53 pm 14:53 Sunny 71 21.7 63 17.2 76 76 Calm 30.11 1020 10 16 0.00 0.00
3:53 pm 15:53 Sunny 71 21.7 63 17.2 76 76 Calm 30.10 1019 10 16 0.00 0.00
4:53 pm 16:53 Sunny 71 21.7 64 17.8 79 79 VRB 3 6 30.09 1019 10 16 0.00 0.00
5:53 pm 17:53 Sunny 70 21.1 64 17.8 82 82 E 3 6 30.09 1019 10 16 0.00 0.00
6:53 pm 18:53 Clear 66 18.9 65 18.3 96 96 SE 3 6 30.11 1020 9 14 0.00 0.00
7:53 pm 19:53 Clear 67 19.4 65 18.3 93 93 Calm 30.12 1020 10 16 0.00 0.00
8:53 pm 20:53 Clear 65 18.3 64 17.8 97 97 Calm 30.12 1020 8 13 0.00 0.00
9:53 pm 21:53 Clear 65 18.3 64 17.8 97 97 undefined N/A 30.12 1020 8 13 0.00 0.00
10:53 pm 22:53 Clear with Mist and Fog 64 17.8 63 17.2 96 96 undefined N/A 30.12 1020 6 10 0.00 0.00
11:53 pm 23:53 Clear 66 18.9 64 17.8 93 93 E 3 6 30.10 1019 8 13 0.00 0.00

Powered by AerisWeather